Temperature
-0 0 -0 -0 -0 -1 -1 -0 -0 0 0 1 0 -1 -1 -0 -0 -0 -0 -1 -1 -1 -1 -1 -1 -1 -2 -2 -2 -2 -2 -2 -2 -2 -2 -2 -3 -3 -3 -3 -3 -3 -3 -3
-1 -0 -1 -1 -0 -1 -1 -0 -1 -0 -0 -0 -0 -1 -1 -1 -1 -1 -1 -1 -1 -1 -1 -1 -2 -2 -2 -2 -3 -3 -3 -3 -3 -3 -3 -3 -3 -3 -3 -3 -3 -3 -4 -4
-1 -1 -1 -1 -0 -1 -1 -2 -2 -1 -0 -1 -2 -2 -2 -1 -2 -2 -1 -1 -1 -1 -2 -2 -2 -3 -3 -3 -3 -3 -3 -4 -4 -4 -4 -4 -4 -4 -4 -4 -4 -4 -4 -4
-2 -2 -0 1 -1 -1 -2 -2 -3 -3 -3 -3 -3 -2 -2 -2 -2 -2 -2 -2 -2 -2 -2 -3 -3 -3 -3 -4 -4 -4 -4 -4 -4 -4 -5 -5 -5 -5 -5 -5 -5 -5 -5 -5
-2 -2 -1 -1 -2 -3 -3 -2 -4 -4 -3 -3 -3 -3 -3 -2 -2 -2 -2 -2 -2 -3 -3 -3 -4 -4 -4 -5 -5 -5 -5 -5 -5 -6 -6 -6 -6 -6 -6 -6 -6 -6 -6 -6
-2 -1 -1 -0 -3 -3 -3 -2 -3 -4 -4 -4 -4 -4 -3 -2 -3 -3 -3 -3 -3 -4 -4 -4 -5 -5 -5 -5 -5 -5 -6 -6 -6 -7 -7 -7 -7 -7 -7 -7 -7 -7 -7 -7
-3 -2 -2 -3 -4 -4 -2 -1 -3 -3 -3 -4 -5 -3 -3 -3 -4 -4 -4 -4 -5 -5 -5 -5 -5 -6 -6 -6 -6 -6 -7 -7 -7 -7 -7 -8 -8 -8 -8 -8 -8 -8 -8 -8
-4 -3 -2 -5 -6 -4 -3 -2 -3 -3 -3 -3 -3 -4 -4 -4 -4 -4 -5 -5 -5 -6 -6 -6 -6 -7 -7 -7 -7 -7 -8 -8 -8 -8 -8 -9 -9 -9 -9 -9 -9 -9 -9 -9
-4 -3 -3 -4 -3 -2 -2 -3 -3 -3 -3 -4 -4 -4 -4 -5 -5 -5 -6 -6 -6 -7 -7 -7 -7 -8 -8 -8 -8 -8 -9 -9 -9 -9 -9 -10 -10 -10 -10 -10 -10 -10 -10 -10
-6 -5 -5 -4 -3 -3 -3 -3 -4 -4 -4 -5 -5 -5 -5 -6 -6 -6 -6 -7 -7 -7 -8 -8 -8 -9 -9 -9 -9 -9 -9 -10 -10 -10 -10 -10 -11 -11 -11 -11 -11 -11 -11 -11
-6 -6 -6 -4 -3 -3 -4 -4 -4 -5 -5 -5 -6 -6 -6 -6 -6 -7 -7 -8 -8 -8 -9 -9 -9 -9 -9 -10 -10 -10 -10 -11 -11 -11 -11 -11 -11 -12 -12 -12 -12 -12 -12 -12
-5 -5 -6 -4 -4 -4 -4 -5 -5 -6 -6 -6 -6 -7 -7 -7 -7 -8 -8 -8 -9 -9 -9 -10 -10 -10 -10 -11 -11 -11 -11 -11 -12 -12 -12 -12 -12 -12 -13 -13 -13 -13 -13 -12
-5 -4 -5 -4 -5 -5 -5 -6 -6 -7 -7 -7 -7 -8 -8 -8 -8 -9 -9 -9 -10 -10 -10 -11 -11 -11 -11 -11 -11 -12 -12 -12 -12 -13 -13 -13 -13 -13 -13 -13 -13 -13 -13 -13
-5 -6 -6 -6 -6 -6 -6 -7 -7 -8 -8 -8 -8 -9 -9 -9 -9 -10 -10 -10 -11 -11 -11 -12 -12 -12 -12 -12 -12 -12 -13 -13 -13 -13 -14 -14 -14 -14 -14 -14 -14 -14 -14 -14
-6 -6 -7 -7 -7 -7 -7 -8 -8 -8 -8 -9 -9 -10 -10 -10 -10 -11 -11 -11 -12 -12 -12 -12 -12 -12 -12 -13 -13 -13 -13 -13 -14 -14 -14 -15 -15 -15 -15 -15 -15 -14 -14 -14
-7 -7 -7 -8 -8 -8 -8 -9 -9 -9 -10 -10 -10 -11 -11 -11 -11 -12 -12 -12 -12 -12 -13 -13 -13 -13 -13 -13 -14 -14 -14 -14 -15 -15 -15 -15 -15 -15 -15 -15 -15 -15 -15 -15
-8 -8 -8 -8 -8 -9 -9 -9 -10 -10 -10 -11 -11 -11 -12 -12 -12 -12 -13 -13 -13 -13 -13 -13 -13 -13 -14 -14 -14 -14 -15 -15 -15 -15 -15 -15 -15 -16 -16 -16 -16 -16 -15 -15
-8 -8 -8 -8 -9 -9 -10 -10 -10 -11 -11 -12 -12 -12 -13 -13 -13 -13 -13 -14 -14 -14 -14 -14 -14 -14 -14 -15 -15 -15 -15 -15 -15 -15 -16 -16 -16 -16 -16 -16 -16 -16 -16 -16
-8 -9 -9 -9 -9 -10 -10 -11 -11 -11 -12 -12 -13 -13 -13 -13 -14 -14 -14 -14 -14 -14 -14 -14 -15 -15 -15 -15 -16 -16 -16 -16 -16 -16 -16 -16 -16 -16 -17 -17 -17 -16 -16 -16
-9 -9 -9 -10 -10 -10 -11 -11 -12 -12 -13 -13 -13 -14 -14 -14 -14 -14 -14 -15 -15 -15 -15 -15 -15 -15 -15 -16 -16 -16 -16 -16 -16 -16 -17 -17 -17 -17 -17 -17 -17 -17 -17 -17
-9 -10 -10 -10 -11 -11 -12 -12 -12 -13 -13 -13 -14 -14 -14 -14 -15 -15 -15 -15 -15 -15 -16 -16 -16 -16 -16 -16 -16 -16 -17 -17 -17 -17 -17 -17 -17 -17 -17 -17 -17 -17 -17 -17
-10 -10 -10 -11 -11 -12 -12 -13 -13 -13 -14 -14 -14 -15 -15 -15 -15 -15 -15 -15 -16 -16 -16 -16 -16 -16 -16 -17 -17 -17 -17 -17 -17 -17 -18 -18 -18 -18 -18 -18 -18 -18 -18 -18
-11 -11 -11 -11 -12 -12 -13 -13 -14 -14 -14 -14 -15 -15 -15 -15 -16 -16 -16 -16 -16 -16 -17 -17 -17 -17 -17 -17 -17 -17 -17 -17 -18 -18 -18 -18 -18 -18 -18 -18 -18 -18 -18 -18
-11 -11 -12 -12 -13 -13 -13 -13 -14 -14 -15 -15 -15 -15 -16 -16 -16 -16 -16 -17 -17 -17 -17 -17 -17 -17 -17 -17 -17 -17 -18 -18 -18 -18 -18 -18 -18 -18 -18 -18 -18 -18 -18 -18
-12 -12 -12 -13 -13 -13 -14 -14 -14 -15 -15 -15 -15 -16 -16 -16 -16 -16 -17 -17 -17 -17 -17 -17 -18 -18 -18 -18 -18 -18 -18 -18 -18 -18 -18 -19 -19 -19 -19 -19 -19 -19 -19 -19
-12 -13 -13 -14 -14 -14 -14 -15 -15 -15 -15 -16 -16 -16 -16 -16 -16 -17 -17 -17 -17 -17 -17 -18 -18 -18 -18 -18 -18 -18 -18 -18 -19 -19 -19 -19 -19 -19 -19 -19 -19 -19 -19 -19
-13 -14 -14 -14 -14 -15 -15 -15 -15 -16 -16 -16 -16 -16 -16 -17 -17 -17 -17 -17 -17 -18 -18 -18 -18 -18 -18 -18 -19 -19 -19 -19 -19 -19 -19 -19 -19 -19 -19 -19 -19 -19 -19 -19
Wind_Speed
10 8 5 8 10 9 12 12 12 13 13 15 10 8 7 6 5 5 5 5 5 5 4 3 2 2 2 2 1 1 1 1 2 2 1 1 2 2 2 2 2 2 2 3
7 7 7 10 13 13 15 13 15 15 17 13 9 6 6 7 6 7 7 6 6 5 4 4 4 3 3 2 2 1 1 2 2 1 1 2 2 2 2 2 2 2 2 3
7 6 5 11 12 12 9 9 9 15 15 8 7 8 8 7 6 8 8 7 6 6 6 5 4 4 4 3 2 2 2 2 2 1 2 2 2 2 2 2 2 3 3 3
4 2 10 9 3 7 9 10 10 10 9 7 8 7 6 5 6 7 7 7 6 5 5 4 3 3 2 2 2 2 2 2 2 2 2 2 2 3 3 3 3 3 4 4
3 6 11 9 4 5 6 9 8 11 11 9 6 5 5 4 3 5 5 5 4 3 3 2 2 2 2 2 2 3 3 3 3 3 3 3 3 3 3 3 3 3 4 3
5 6 8 7 2 2 2 7 5 6 8 6 2 4 6 2 2 3 3 3 2 1 1 1 2 1 2 2 2 4 4 4 3 3 3 3 4 3 3 3 3 4 4 4
9 9 9 6 2 4 4 7 3 4 6 4 5 7 5 3 3 2 2 2 1 1 1 2 1 1 2 2 4 4 3 2 2 3 3 3 3 3 2 3 3 3 4 5
6 7 10 3 5 6 7 2 2 3 4 5 7 6 4 4 3 2 2 2 1 1 2 2 1 1 2 3 3 2 1 2 2 2 2 2 2 2 3 3 3 4 4 5
9 9 5 6 7 5 2 4 4 4 5 5 6 6 5 4 4 3 2 2 1 1 2 2 1 1 2 3 2 1 1 1 2 2 2 2 2 3 3 3 3 4 4 5
7 10 8 7 6 5 4 6 6 6 5 5 6 6 5 4 3 3 2 2 1 1 1 2 2 2 2 2 1 1 1 2 2 2 2 2 3 3 3 3 4 4 5 5
8 8 6 7 7 8 6 5 5 5 4 5 5 6 5 4 4 3 2 1 1 1 2 3 3 3 3 2 1 1 2 2 2 2 3 3 3 3 4 5 5 5 5 5
9 6 6 6 4 4 5 5 5 4 4 3 4 5 4 3 2 2 2 1 1 2 2 3 3 3 3 2 1 2 2 3 2 2 3 3 3 4 7 7 9 10 10 9
7 5 5 5 3 2 3 4 3 3 4 4 3 3 2 2 1 1 2 2 2 3 3 3 3 3 3 3 2 2 3 3 3 3 3 3 3 4 5 6 8 9 10 11
5 2 3 4 4 3 2 2 1 1 2 2 2 1 1 1 1 2 2 3 2 2 3 3 3 4 4 3 3 3 3 4 3 3 3 3 3 4 4 4 5 5 7 10
5 4 5 3 2 2 1 1 1 2 2 2 1 1 1 2 3 3 3 2 2 2 3 3 4 5 4 3 3 3 3 3 3 3 3 3 3 4 4 4 5 5 5 6
3 3 3 3 4 4 2 2 3 4 3 2 2 2 2 2 2 3 2 2 2 3 4 4 5 5 4 3 3 3 3 5 4 3 3 3 3 3 4 4 4 4 5 5
3 4 4 4 5 5 4 4 4 4 3 3 3 2 2 2 2 3 3 3 3 4 5 5 6 5 3 3 3 3 3 4 5 4 3 3 3 4 4 4 4 5 5 6
6 6 5 5 5 5 4 4 4 4 4 4 2 2 2 2 3 4 4 3 3 4 4 5 4 4 3 3 3 3 3 3 3 3 3 3 4 3 3 4 5 5 5 6
4 4 4 4 3 3 3 4 4 4 3 2 2 3 3 4 4 4 3 3 3 5 5 4 6 4 3 4 4 2 3 3 3 3 3 5 5 3 3 4 4 5 5 5
2 2 2 2 2 2 3 3 3 3 2 2 2 3 3 4 3 3 3 4 5 5 5 5 4 4 4 4 4 2 3 3 4 4 3 3 4 4 4 4 4 5 5 4
3 2 2 2 2 2 3 3 3 3 2 2 3 4 4 4 3 3 3 4 4 4 4 6 4 3 3 4 4 2 3 3 3 3 4 4 4 4 4 5 5 5 5 5
2 2 2 2 2 2 2 2 2 3 2 2 3 3 3 3 3 3 4 5 5 6 4 3 4 5 5 4 2 2 3 3 3 3 4 4 4 5 5 5 5 5 5 5
2 2 2 2 3 2 2 2 2 3 3 4 4 4 4 4 3 3 4 4 4 6 4 4 6 7 5 2 2 2 3 3 4 4 4 5 5 5 5 6 6 5 5 5
2 2 2 2 1 1 2 3 2 2 3 4 4 4 4 3 3 4 4 6 7 7 4 6 8 8 5 2 2 3 4 4 4 4 5 5 5 5 5 6 6 6 6 6
2 2 2 2 2 3 3 3 2 2 3 3 3 4 4 4 4 4 4 5 7 7 4 6 8 8 4 2 3 3 4 5 5 5 4 5 5 5 5 6 6 6 6 6
2 2 2 3 3 3 2 2 2 2 2 3 3 3 3 3 4 4 3 4 5 7 5 4 4 5 3 3 4 4 4 5 6 5 5 5 6 6 6 6 7 6 6 7
1 2 2 2 2 2 2 3 3 3 3 4 4 4 3 3 3 3 4 4 4 4 4 3 3 3 3 4 4 4 4 4 5 5 5 5 5 6 6 7 6 7 7 7
Wind_Direction
252 256 241 243 244 224 220 223 231 249 251 263 267 261 262 259 260 256 259 257 249 245 245 242 251 259 260 267 278 268 240 253 267 277 282 287 283 275 272 267 268 274 281 280
266 254 252 263 255 238 236 237 241 257 265 263 269 268 267 264 259 256 257 256 252 247 244 240 239 244 252 259 263 254 243 260 279 283 285 282 280 285 283 280 280 279 276 272
265 282 304 266 243 222 222 223 219 241 252 268 271 265 260 259 254 253 258 259 255 248 241 238 237 235 233 242 246 234 242 256 268 271 276 280 281 283 276 275 280 273 271 264
261 302 250 249 225 208 224 241 226 239 260 263 259 274 275 260 251 265 268 262 259 252 245 243 239 236 232 228 227 229 243 253 257 260 266 275 276 275 276 276 271 270 273 268
223 251 266 277 244 188 210 260 231 238 260 273 290 313 287 259 253 265 276 272 265 260 254 247 240 230 211 227 230 231 239 247 249 247 251 255 261 267 276 276 274 273 274 272
219 239 251 255 228 181 151 265 245 221 251 268 310 287 278 294 305 299 306 301 290 299 310 260 263 219 196 229 239 245 248 250 247 241 239 247 255 266 272 268 268 274 283 281
228 242 259 262 213 127 189 252 258 216 236 237 223 243 276 304 303 300 312 319 316 303 297 282 273 206 217 239 248 255 256 258 255 250 246 250 258 269 270 269 274 271 276 282
205 227 251 209 143 187 225 258 246 246 242 244 252 269 276 277 281 292 304 316 316 304 306 312 299 216 239 256 267 269 250 256 270 271 265 264 260 274 274 265 268 269 270 279
203 222 242 183 202 226 215 236 249 249 258 254 260 266 269 271 267 272 272 280 281 269 295 316 307 238 248 279 288 282 266 264 276 280 278 270 257 264 271 263 259 270 269 273
243 255 249 237 243 254 242 241 255 258 262 257 256 261 261 259 259 262 265 266 277 280 290 303 309 291 266 289 296 254 254 267 268 267 274 274 270 264 264 259 259 265 269 272
247 266 287 262 237 244 248 253 262 268 260 251 249 258 255 256 256 251 263 271 249 243 264 282 297 297 299 305 296 267 260 259 258 261 264 269 272 267 266 258 255 260 259 263
238 227 218 249 241 232 233 247 253 262 275 271 245 254 258 255 250 243 254 258 257 262 271 281 287 290 296 293 263 250 266 263 258 258 261 266 273 287 284 280 280 278 276 276
240 250 235 260 278 253 237 252 260 254 259 276 278 254 251 260 264 247 254 252 252 259 269 276 282 287 293 290 277 255 256 261 259 260 261 266 272 278 292 299 294 290 288 288
250 248 262 252 257 265 249 261 276 288 285 280 288 294 267 272 278 262 261 263 267 269 273 275 281 286 291 287 276 267 266 269 268 257 256 259 264 271 277 285 295 297 300 300
250 228 237 258 275 286 277 243 267 284 291 302 299 277 260 255 265 274 280 286 284 279 280 281 283 287 294 283 274 270 270 268 265 261 261 262 266 271 274 278 282 291 301 305
256 248 241 248 255 262 256 243 249 266 267 265 268 266 260 257 269 283 289 278 261 271 278 278 278 285 286 276 276 272 268 277 278 271 267 267 267 269 272 275 279 283 287 293
217 243 242 253 256 257 246 238 236 247 249 246 249 254 264 277 288 285 283 273 264 267 271 272 278 286 277 266 257 261 266 273 284 285 273 269 267 266 267 269 272 277 280 285
221 231 233 234 240 243 250 245 239 241 241 241 241 240 242 247 262 275 283 291 294 291 282 278 278 277 268 259 247 251 256 262 265 269 271 270 270 266 267 269 271 277 286 292
230 234 237 235 232 224 237 246 246 244 244 230 223 236 246 252 259 270 279 281 280 285 287 283 293 295 278 269 270 250 253 258 265 267 268 274 282 278 273 272 274 277 281 286
231 228 226 240 242 228 241 250 246 246 241 218 222 240 256 262 261 263 263 261 255 259 271 278 280 274 266 264 272 249 245 248 256 262 263 262 267 272 274 275 276 276 278 278
227 223 221 232 247 247 241 240 235 242 242 216 219 237 251 263 260 250 254 275 277 267 265 280 281 270 264 264 268 248 243 248 254 258 261 264 267 270 271 272 275 275 275 276
218 214 225 228 236 260 264 243 230 231 236 237 239 242 249 261 263 258 246 253 270 280 281 269 269 271 277 275 255 244 244 249 255 262 264 263 264 267 269 270 272 274 274 274
221 216 223 229 233 247 273 258 238 229 235 239 241 242 244 250 248 249 269 264 262 273 279 265 274 283 285 277 254 244 248 251 256 260 263 265 265 265 266 268 270 272 273 275
219 223 224 223 204 221 258 265 254 245 242 248 247 243 240 252 260 249 255 274 282 284 277 277 284 287 289 273 254 248 251 255 258 259 263 268 269 270 269 270 271 272 271 272
215 215 208 208 225 242 248 254 260 258 255 259 260 254 245 238 245 262 265 264 275 287 284 283 287 290 291 263 256 256 256 256 257 258 256 263 267 270 271 272 273 274 274 273
216 223 231 232 233 241 241 238 247 256 256 268 274 267 259 255 254 260 263 264 265 281 283 277 280 285 278 268 265 264 262 271 280 276 267 267 268 268 270 270 271 272 273 272
229 234 242 260 257 244 236 235 242 251 250 251 266 268 261 261 262 263 263 267 271 272 272 273 271 266 265 265 268 271 271 270 268 267 267 265 267 268 270 268 271 273 275 274
Height
1505 1503 1504 1503 1501 1503 1503 1499 1499 1488 1485 1475 1474 1474 1472 1471 1470 1469 1468 1466 1465 1464 1463 1463 1462 1462 1462 1461 1461 1461 1460 1460 1460 1460 1459 1459 1459 1459 1459 1459 1459 1459 1459 1459
1505 1501 1501 1498 1493 1493 1492 1491 1489 1485 1478 1470 1471 1470 1469 1467 1466 1465 1463 1462 1461 1460 1460 1459 1458 1458 1458 1457 1457 1457 1457 1456 1456 1455 1455 1455 1455 1454 1454 1454 1454 1454 1454 1454
1503 1502 1499 1492 1481 1483 1484 1481 1481 1478 1469 1466 1468 1466 1465 1463 1462 1460 1459 1458 1457 1456 1455 1455 1454 1454 1454 1454 1453 1453 1453 1452 1452 1451 1451 1451 1450 1450 1450 1450 1449 1449 1449 1449
1503 1503 1495 1474 1473 1474 1475 1474 1473 1470 1465 1464 1463 1461 1460 1459 1458 1456 1455 1453 1452 1451 1451 1450 1450 1450 1450 1450 1450 1449 1449 1448 1448 1447 1447 1447 1446 1446 1446 1445 1445 1444 1444 1444
1502 1498 1486 1474 1471 1473 1474 1469 1466 1465 1462 1460 1460 1458 1455 1455 1454 1453 1452 1450 1449 1448 1447 1446 1446 1446 1446 1446 1445 1445 1445 1444 1444 1444 1443 1443 1442 1442 1441 1441 1440 1439 1439 1439
1497 1492 1483 1467 1468 1468 1471 1468 1460 1460 1459 1458 1459 1460 1454 1452 1450 1449 1448 1446 1445 1443 1443 1442 1442 1442 1441 1441 1441 1441 1441 1440 1440 1440 1439 1439 1438 1438 1437 1436 1435 1435 1434 1434
1492 1488 1475 1469 1466 1468 1471 1461 1458 1456 1456 1456 1456 1454 1451 1449 1447 1445 1444 1442 1441 1440 1439 1439 1438 1438 1437 1437 1437 1437 1437 1437 1436 1436 1436 1435 1434 1434 1433 1432 1431 1430 1429 1429
1489 1485 1473 1464 1465 1465 1459 1456 1455 1454 1453 1452 1451 1449 1447 1445 1444 1442 1441 1439 1438 1437 1436 1435 1435 1434 1433 1433 1433 1433 1433 1432 1432 1432 1432 1431 1430 1429 1428 1427 1426 1425 1424 1423
1474 1467 1459 1457 1456 1454 1454 1453 1452 1451 1450 1449 1446 1445 1443 1442 1441 1439 1438 1436 1435 1434 1432 1432 1431 1431 1430 1429 1429 1429 1428 1428 1428 1428 1427 1426 1425 1424 1423 1423 1422 1420 1420 1418
1468 1458 1454 1453 1452 1451 1451 1449 1448 1447 1446 1445 1443 1441 1440 1438 1437 1435 1434 1433 1431 1430 1429 1428 1428 1427 1426 1426 1425 1425 1424 1423 1423 1423 1422 1421 1421 1420 1419 1417 1417 1416 1415 1414
1460 1452 1450 1447 1446 1446 1446 1445 1444 1443 1442 1440 1438 1437 1436 1434 1433 1432 1431 1430 1428 1427 1425 1425 1424 1423 1423 1422 1421 1421 1420 1419 1419 1418 1417 1416 1416 1415 1414 1413 1413 1412 1411 1410
1449 1445 1446 1443 1442 1442 1441 1440 1439 1438 1436 1435 1434 1433 1431 1430 1429 1428 1427 1426 1424 1423 1422 1421 1421 1420 1419 1419 1418 1417 1416 1415 1414 1414 1413 1412 1411 1410 1409 1409 1408 1407 1407 1406
1442 1440 1440 1439 1438 1438 1437 1436 1435 1434 1432 1431 1430 1429 1427 1426 1425 1424 1423 1422 1421 1420 1419 1418 1417 1416 1416 1415 1414 1413 1412 1411 1410 1409 1409 1408 1407 1405 1404 1403 1402 1402 1401 1400
1438 1438 1436 1435 1434 1434 1433 1432 1431 1430 1428 1427 1426 1425 1424 1422 1421 1420 1419 1418 1418 1416 1415 1415 1413 1412 1412 1411 1410 1409 1408 1407 1406 1406 1405 1404 1403 1402 1401 1399 1397 1396 1396 1395
1433 1433 1432 1431 1430 1430 1429 1428 1427 1425 1424 1423 1422 1421 1420 1419 1418 1417 1416 1415 1414 1413 1412 1411 1410 1409 1409 1407 1406 1405 1404 1403 1403 1402 1401 1400 1399 1398 1397 1396 1394 1392 1391 1390
1429 1428 1428 1427 1426 1425 1425 1424 1423 1422 1421 1420 1419 1418 1417 1416 1414 1413 1413 1412 1411 1409 1408 1407 1406 1406 1405 1403 1402 1401 1400 1400 1399 1398 1397 1396 1395 1394 1393 1392 1390 1389 1387 1386
1425 1423 1423 1422 1422 1421 1421 1420 1419 1418 1417 1416 1415 1414 1413 1412 1411 1410 1410 1409 1407 1406 1405 1404 1403 1402 1401 1400 1399 1397 1397 1396 1396 1395 1394 1393 1392 1391 1389 1388 1387 1385 1384 1383
1420 1420 1420 1419 1418 1417 1416 1416 1415 1415 1413 1412 1412 1411 1410 1409 1408 1407 1406 1405 1404 1403 1402 1401 1400 1398 1397 1396 1395 1394 1393 1392 1392 1391 1390 1389 1388 1387 1386 1384 1383 1381 1380 1379
1416 1416 1416 1415 1414 1413 1413 1412 1412 1411 1410 1409 1408 1407 1406 1406 1405 1404 1403 1401 1400 1399 1398 1397 1396 1395 1393 1393 1392 1391 1390 1389 1388 1387 1386 1385 1384 1383 1382 1381 1379 1378 1376 1375
1413 1413 1412 1411 1411 1410 1409 1408 1407 1407 1406 1405 1404 1403 1403 1402 1401 1400 1399 1398 1397 1396 1395 1394 1392 1391 1390 1389 1388 1387 1386 1385 1384 1383 1383 1381 1380 1379 1378 1377 1375 1374 1372 1371
1409 1409 1408 1408 1407 1406 1405 1405 1404 1402 1402 1401 1401 1400 1399 1398 1398 1396 1395 1394 1393 1393 1391 1390 1389 1388 1386 1385 1384 1383 1382 1382 1381 1380 1379 1377 1376 1375 1374 1372 1371 1370 1368 1367
1406 1405 1405 1404 1403 1402 1402 1401 1400 1399 1398 1398 1397 1396 1396 1394 1394 1393 1392 1391 1390 1389 1388 1387 1385 1384 1383 1382 1381 1380 1379 1378 1377 1375 1374 1373 1372 1371 1369 1368 1367 1365 1364 1363
1402 1402 1401 1401 1400 1399 1398 1398 1397 1396 1395 1394 1394 1393 1392 1391 1390 1389 1388 1387 1386 1385 1384 1383 1382 1381 1379 1378 1377 1376 1375 1373 1372 1371 1370 1369 1367 1366 1365 1363 1362 1361 1359 1358
1399 1399 1398 1397 1397 1396 1395 1394 1393 1392 1392 1391 1390 1389 1388 1387 1386 1385 1385 1384 1382 1382 1380 1379 1378 1376 1375 1374 1372 1371 1370 1369 1368 1367 1366 1364 1363 1361 1360 1359 1357 1356 1354 1353
1396 1395 1395 1394 1393 1392 1391 1391 1390 1389 1388 1387 1386 1386 1385 1384 1383 1382 1381 1380 1378 1377 1376 1374 1373 1372 1370 1369 1368 1366 1365 1364 1363 1362 1360 1359 1358 1356 1355 1353 1352 1350 1349 1347
1392 1391 1391 1390 1390 1389 1388 1387 1386 1385 1384 1383 1382 1382 1381 1380 1379 1378 1377 1375 1374 1373 1371 1370 1368 1367 1366 1364 1363 1362 1360 1359 1358 1357 1355 1354 1353 1351 1350 1348 1347 1345 1343 1342
1388 1388 1387 1386 1386 1385 1385 1384 1383 1382 1381 1380 1379 1378 1377 1376 1375 1374 1372 1371 1370 1368 1367 1366 1364 1363 1361 1360 1359 1357 1356 1354 1353 1352 1350 1349 1347 1346 1344 1343 1341 1340 1338 1336